Wind_Speed
54 72 72 70 68 68 70 68 68 68 67 66 62 59 54 52 52 51 49 50 48 46 47 46 44 41 39 37 37 35 33 31 31 30 31 31 31 29 29 29 32 43 49 50 52
51 49 59 75 72 69 67 66 71 69 68 66 64 62 57 55 53 52 49 49 48 47 46 46 46 45 43 42 40 38 37 36 36 36 35 35 35 35 34 34 35 36 43 50 51
59 58 57 56 73 73 72 65 61 69 69 67 64 63 61 57 53 52 50 48 48 46 46 46 45 45 44 44 43 41 40 41 40 40 40 41 41 40 37 37 42 40 40 43 49
61 62 61 58 58 61 63 70 63 57 66 66 62 64 61 59 55 53 51 49 48 47 46 46 45 44 43 44 43 43 43 43 43 44 44 45 43 43 44 40 45 46 45 41 40
51 49 49 47 43 47 49 53 59 58 53 65 62 60 61 58 55 52 50 49 47 45 45 46 44 42 43 43 44 44 42 43 45 45 46 48 46 46 45 48 51 52 51 49 48
32 34 31 26 30 42 38 40 48 52 51 52 61 58 57 58 52 51 50 49 46 44 43 43 42 42 42 42 43 44 44 44 45 48 49 49 49 52 51 55 56 56 55 56 55
25 26 24 22 25 27 29 40 25 44 46 43 50 53 39 54 45 50 49 46 45 43 41 41 41 40 40 42 44 45 46 47 48 50 52 53 53 55 59 60 58 60 61 61 60
24 21 19 13 25 29 29 38 30 34 44 40 46 43 45 39 48 48 47 44 43 42 40 39 38 38 38 40 41 43 44 46 49 52 55 56 52 56 62 63 63 66 66 65 64
20 16 13 10 13 26 23 28 35 25 43 42 34 45 46 31 32 40 43 42 39 37 36 36 36 36 36 37 38 40 41 44 48 50 51 52 51 57 65 68 68 72 70 67 67
11 9 10 7 6 19 29 19 22 23 39 38 36 39 42 35 32 33 35 37 36 36 34 33 32 31 31 31 33 35 37 40 43 46 49 53 56 60 70 73 74 73 72 71 71
6 4 4 4 8 17 34 25 19 30 37 40 38 34 38 31 26 30 31 29 29 27 27 25 25 25 25 26 27 30 33 35 42 46 49 48 49 50 49 59 60 58 66 73 75
2 2 3 5 10 23 33 39 25 38 41 35 38 35 37 40 32 30 25 24 22 20 20 19 18 17 18 21 24 27 31 34 32 32 29 27 29 34 41 42 44 42 36 37 42
2 3 7 2 10 33 33 33 29 38 38 29 27 34 27 27 29 26 23 20 18 16 15 13 12 14 16 19 22 23 22 21 17 18 26 25 30 34 28 24 25 26 28 28 26
8 7 7 9 23 26 37 35 32 32 34 31 31 24 25 23 22 20 16 17 17 16 14 13 13 12 13 16 17 14 15 15 15 21 28 30 22 21 20 15 11 9 7 7 6
12 14 25 43 35 40 35 28 39 29 37 29 27 25 26 27 21 18 19 19 18 17 15 14 10 8 9 10 6 10 12 16 23 28 27 24 25 19 20 14 6 1 4 6 4
33 34 35 39 33 28 35 30 39 34 32 30 29 27 27 28 26 24 23 19 17 14 12 10 8 5 7 4 5 11 20 24 23 21 21 20 19 15 13 13 9 3 2 5 9
42 43 39 37 25 24 32 34 36 33 35 30 29 27 29 26 23 20 17 14 15 9 7 6 4 7 5 3 10 14 13 13 11 13 17 15 14 13 9 7 5 5 4 6 9
46 43 43 35 35 33 26 27 32 33 34 34 32 29 25 24 20 16 16 17 10 6 7 6 9 5 0 6 6 9 12 11 11 14 14 12 12 6 6 4 3 2 3 5 9
40 40 42 34 30 32 30 27 32 34 30 29 28 23 21 19 16 18 18 11 6 9 13 12 6 3 3 3 6 10 13 9 11 13 11 11 11 12 9 11 9 8 10 9 14
30 32 29 32 25 27 22 35 32 26 24 24 20 22 18 17 20 17 12 12 14 15 13 9 8 5 3 6 8 9 10 9 11 11 10 12 9 11 9 10 8 7 6 1 3
36 31 23 28 32 30 30 25 26 26 25 24 22 19 22 23 17 14 18 17 14 12 11 11 9 9 10 9 8 11 11 12 12 11 11 11 10 14 16 16 17 18 18 15 13
37 35 35 32 27 20 22 25 23 27 26 25 26 28 23 18 21 21 17 14 15 14 15 13 13 13 15 17 15 15 14 15 17 17 16 13 13 13 12 16 17 22 24 24 22
39 39 38 36 28 25 30 33 33 31 30 27 25 22 22 25 23 18 18 19 18 16 16 15 14 13 14 15 17 16 15 15 17 18 20 18 16 17 17 15 19 22 22 21 16
47 48 47 45 44 41 38 35 31 27 26 29 31 30 26 21 20 22 22 19 17 16 14 14 14 13 12 13 13 13 13 12 11 13 13 14 15 16 14 12 10 11 12 11 9
42 42 42 39 36 35 34 35 35 34 34 31 27 25 24 23 22 21 19 16 14 12 11 11 10 9 8 7 8 9 10 9 7 6 7 6 7 7 6 5 5 4 5 5 5
35 35 37 37 36 35 34 34 34 32 29 26 24 23 22 20 18 15 13 12 9 8 7 5 5 4 6 8 9 9 8 7 6 4 3 5 4 3 4 4 4 4 1 1 3
37 37 35 32 30 29 29 28 27 25 24 23 20 18 14 13 11 10 8 6 5 2 1 4 7 9 11 9 7 3 2 3 4 4 3 3 4 4 5 5 5 4 3 3 2
Wind_Direction
274 265 258 254 250 249 247 243 241 240 239 238 239 241 241 243 243 244 244 245 245 247 246 247 246 247 248 250 253 257 264 264 263 267 271 275 281 279 278 277 267 259 256 255 255
291 285 266 259 255 249 244 245 240 237 236 236 236 237 237 238 239 240 241 242 244 245 247 248 249 248 249 249 252 258 264 264 267 269 270 272 275 276 276 276 275 273 265 258 254
297 289 277 262 255 252 250 242 238 241 232 232 232 232 235 233 235 237 239 240 242 243 246 249 250 251 250 252 253 255 258 261 265 268 269 271 274 276 278 278 276 272 273 269 263
292 283 282 275 255 246 250 246 239 235 238 229 228 228 228 232 231 234 236 238 240 242 244 248 250 252 254 256 256 257 257 260 263 266 267 269 272 275 276 276 277 277 271 267 268
297 299 287 268 252 249 242 247 242 234 232 234 224 224 226 228 230 231 234 236 237 240 244 247 250 253 256 258 259 260 262 263 264 267 268 269 272 271 273 275 274 273 273 266 265
308 310 302 264 245 241 239 235 242 233 229 231 227 217 221 222 226 228 231 233 236 238 242 246 249 252 256 260 262 263 265 267 268 269 270 271 272 275 274 268 271 274 271 268 264
302 310 309 281 233 225 220 224 227 224 219 221 228 221 225 224 216 227 228 232 235 238 242 245 249 252 257 261 264 267 268 270 271 270 270 273 273 276 274 272 272 271 271 267 264
295 307 295 298 228 208 217 220 206 213 207 206 214 213 210 225 225 224 225 229 231 236 239 244 248 253 258 264 267 269 270 270 272 272 273 273 273 276 273 271 271 272 269 265 262
290 309 310 270 248 219 191 208 207 179 196 193 201 208 205 200 223 225 225 226 230 234 239 244 249 254 260 265 269 271 273 272 273 274 275 276 275 273 274 272 270 271 266 261 258
284 309 313 263 218 217 166 168 189 160 181 181 188 205 200 208 216 217 225 227 231 236 240 244 251 257 261 266 271 274 275 277 279 279 282 280 280 277 274 272 270 265 262 260 259
255 285 342 253 214 209 160 162 178 153 159 168 181 197 202 190 194 211 213 214 225 233 237 243 248 255 263 267 272 275 278 281 281 284 283 282 280 278 276 272 268 267 261 258 259
201 181 351 187 207 191 163 158 157 147 152 175 181 184 199 199 193 201 206 221 218 215 224 234 243 249 258 263 270 277 280 283 287 288 287 284 287 292 298 275 266 264 265 263 259
37 110 337 295 194 155 138 145 159 148 144 151 159 190 189 189 204 206 202 195 201 207 205 213 226 238 253 266 276 281 286 283 293 302 303 300 297 306 309 302 270 264 265 269 265
85 13 18 148 137 115 138 131 138 145 149 163 163 151 162 166 170 175 191 188 185 187 194 207 222 244 264 273 285 283 275 288 293 300 307 299 314 314 324 313 298 228 244 260 261
49 75 119 106 103 112 126 150 146 149 143 147 149 158 168 174 183 181 173 178 185 192 201 208 225 238 267 274 261 278 266 286 297 306 312 310 305 309 312 328 328 153 178 156 144
96 108 87 84 102 121 115 130 140 136 130 133 142 142 148 159 166 171 177 182 185 190 191 206 205 232 223 244 269 273 301 298 301 303 320 314 309 310 318 315 314 330 144 170 129
85 84 87 87 103 103 116 122 130 137 128 138 142 151 154 158 163 167 169 168 169 167 180 182 205 193 196 243 284 309 316 331 328 317 324 332 329 326 319 328 347 17 86 122 131
91 70 69 85 93 104 121 113 130 123 116 138 146 150 151 152 155 155 152 149 149 163 187 173 158 156 197 315 330 345 359 358 348 358 356 353 344 322 270 273 269 209 213 167 154
66 63 66 65 79 93 96 119 115 123 129 135 142 143 142 142 137 133 131 136 140 135 126 117 126 95 44 321 322 332 340 355 355 347 7 10 3 34 45 66 84 103 125 139 138
74 76 84 73 87 101 92 103 109 114 122 121 125 120 118 120 126 124 122 118 120 116 109 111 96 89 18 14 352 9 24 356 359 15 15 7 15 12 15 29 69 80 126 250 130
73 84 88 82 91 90 114 107 103 108 112 116 115 111 113 116 118 111 117 112 105 102 102 103 88 59 57 59 55 50 55 58 51 51 45 40 61 56 70 64 73 79 83 91 90
76 81 78 80 79 97 92 94 93 94 91 96 102 107 107 109 110 106 97 100 101 96 97 90 74 74 67 63 65 63 62 58 54 59 54 52 58 60 57 67 92 98 91 93 90
76 81 83 83 85 84 88 93 98 102 105 105 104 105 109 105 96 93 100 101 100 93 93 88 84 79 70 64 64 58 60 60 59 54 56 58 62 64 56 62 97 102 103 98 100
75 78 86 94 94 95 93 95 94 94 97 102 102 102 97 93 97 97 91 92 92 89 81 84 81 71 63 56 52 50 40 36 40 52 54 53 55 55 56 68 77 74 76 79 75
76 78 80 83 84 85 87 91 95 96 96 95 96 99 98 97 88 82 84 87 87 83 81 84 82 65 46 31 18 8 2 2 6 5 10 32 45 42 43 43 64 66 71 63 53
75 77 81 83 85 87 86 87 89 91 89 88 90 91 95 97 94 89 85 85 88 86 89 79 33 352 327 316 311 305 308 308 309 312 303 322 338 358 57 58 341 307 336 56 103
78 80 82 82 83 84 85 89 90 91 91 92 90 89 84 82 80 82 87 100 112 117 279 301 305 307 313 309 313 358 70 94 101 95 103 105 106 77 79 114 144 148 148 160 191
Height
5631 5632 5631 5633 5633 5636 5641 5648 5655 5663 5670 5677 5683 5689 5697 5703 5708 5715 5720 5725 5729 5734 5738 5742 5746 5748 5751 5753 5756 5758 5761 5763 5763 5764 5766 5766 5767 5770 5771 5771 5771 5769 5771 5775 5777
5614 5610 5609 5611 5615 5618 5621 5629 5634 5644 5653 5662 5670 5675 5683 5691 5697 5703 5710 5714 5719 5724 5729 5733 5737 5740 5743 5745 5748 5750 5754 5754 5756 5757 5759 5760 5761 5761 5764 5765 5765 5764 5763 5763 5765
5595 5591 5589 5588 5592 5596 5602 5610 5617 5626 5634 5646 5654 5662 5671 5677 5686 5692 5698 5703 5710 5714 5719 5724 5728 5732 5734 5737 5740 5743 5746 5745 5748 5749 5751 5752 5752 5754 5756 5758 5755 5757 5757 5755 5756
5575 5570 5566 5567 5570 5576 5581 5590 5602 5609 5621 5630 5638 5647 5657 5666 5675 5680 5687 5694 5699 5705 5710 5715 5720 5723 5725 5729 5731 5734 5735 5737 5739 5740 5741 5742 5745 5746 5747 5748 5746 5747 5749 5748 5747
5559 5552 5546 5546 5551 5557 5567 5572 5583 5595 5606 5618 5625 5637 5645 5655 5663 5671 5678 5685 5690 5696 5702 5707 5711 5715 5718 5720 5723 5726 5727 5728 5730 5731 5731 5733 5735 5734 5739 5736 5733 5734 5737 5739 5738
5550 5543 5535 5532 5537 5545 5553 5561 5567 5581 5595 5607 5617 5627 5634 5645 5652 5660 5668 5675 5682 5688 5694 5699 5703 5706 5710 5712 5715 5717 5719 5719 5720 5719 5721 5723 5725 5723 5727 5721 5722 5723 5726 5726 5727
5541 5535 5530 5526 5527 5534 5541 5551 5557 5566 5583 5597 5611 5621 5629 5634 5643 5650 5658 5667 5675 5681 5686 5691 5695 5699 5702 5705 5707 5708 5711 5711 5710 5709 5709 5712 5716 5712 5707 5706 5710 5710 5711 5713 5714
5534 5529 5526 5523 5522 5526 5532 5543 5554 5558 5574 5589 5605 5613 5623 5628 5635 5643 5651 5660 5668 5674 5679 5685 5689 5693 5695 5697 5699 5700 5701 5702 5699 5698 5698 5701 5708 5699 5688 5691 5695 5694 5695 5695 5697
5528 5524 5521 5520 5519 5522 5528 5537 5547 5553 5566 5581 5599 5609 5619 5622 5630 5638 5647 5655 5663 5669 5673 5678 5683 5686 5689 5690 5691 5692 5692 5692 5689 5688 5689 5687 5691 5680 5670 5675 5680 5676 5674 5675 5678
5522 5520 5518 5517 5518 5519 5525 5534 5545 5550 5563 5580 5594 5604 5613 5621 5628 5635 5643 5651 5658 5664 5669 5674 5678 5680 5682 5683 5684 5684 5684 5682 5680 5679 5678 5672 5671 5666 5653 5657 5658 5654 5655 5654 5656
5515 5517 5517 5515 5517 5517 5524 5537 5545 5553 5563 5577 5590 5602 5610 5618 5624 5632 5640 5647 5653 5659 5664 5668 5672 5674 5675 5676 5677 5677 5676 5675 5669 5667 5668 5658 5653 5651 5642 5637 5634 5632 5633 5636 5635
5514 5516 5516 5515 5515 5516 5522 5532 5543 5553 5563 5577 5590 5600 5608 5616 5624 5633 5640 5646 5651 5656 5660 5665 5666 5669 5670 5672 5672 5671 5668 5666 5660 5657 5655 5650 5646 5640 5632 5623 5619 5620 5621 5620 5621
5515 5517 5516 5516 5516 5520 5526 5537 5546 5554 5567 5580 5591 5599 5609 5616 5623 5631 5639 5643 5648 5653 5657 5660 5663 5665 5667 5667 5666 5664 5662 5659 5658 5653 5649 5646 5641 5633 5623 5615 5611 5612 5614 5615 5615
5517 5517 5517 5519 5525 5528 5537 5544 5552 5561 5573 5584 5593 5600 5608 5616 5625 5632 5638 5643 5647 5652 5654 5657 5660 5661 5663 5662 5661 5660 5658 5656 5653 5650 5647 5641 5637 5629 5622 5614 5610 5609 5609 5609 5610
5520 5521 5527 5531 5534 5538 5547 5552 5560 5569 5577 5589 5597 5605 5611 5619 5627 5631 5637 5642 5646 5649 5653 5656 5657 5659 5659 5659 5659 5658 5657 5654 5651 5648 5642 5637 5632 5626 5622 5616 5612 5610 5609 5609 5610
5532 5536 5541 5545 5548 5550 5556 5560 5568 5577 5582 5593 5601 5608 5615 5622 5629 5634 5638 5643 5646 5650 5651 5654 5656 5657 5658 5657 5658 5657 5655 5652 5649 5645 5640 5633 5629 5625 5621 5618 5614 5611 5610 5610 5610
5554 5556 5559 5561 5563 5564 5568 5572 5579 5585 5591 5601 5609 5615 5619 5626 5632 5636 5640 5643 5648 5650 5652 5654 5655 5657 5658 5658 5658 5656 5653 5650 5647 5643 5638 5632 5628 5625 5621 5618 5616 5615 5614 5613 5613
5572 5571 5573 5574 5577 5579 5583 5586 5590 5594 5601 5608 5615 5621 5626 5629 5634 5638 5641 5645 5649 5651 5652 5654 5657 5657 5658 5658 5658 5655 5652 5649 5646 5642 5638 5633 5630 5626 5622 5619 5617 5616 5616 5615 5615
5589 5586 5586 5586 5588 5591 5594 5598 5600 5606 5612 5617 5622 5627 5630 5634 5638 5642 5645 5648 5650 5652 5655 5656 5657 5658 5658 5658 5658 5655 5652 5650 5646 5642 5639 5636 5633 5629 5625 5624 5622 5620 5620 5619 5620
5604 5601 5601 5602 5600 5604 5609 5608 5611 5616 5620 5624 5629 5632 5635 5638 5643 5646 5648 5651 5653 5655 5656 5658 5658 5658 5659 5658 5656 5654 5653 5650 5648 5644 5641 5638 5635 5632 5629 5627 5626 5625 5624 5623 5624
5613 5613 5612 5612 5614 5617 5621 5621 5623 5626 5629 5633 5636 5638 5641 5644 5648 5650 5652 5655 5656 5657 5658 5659 5661 5661 5661 5660 5657 5657 5655 5653 5650 5647 5645 5642 5640 5637 5634 5632 5630 5628 5627 5628 5628
5624 5623 5621 5621 5625 5627 5629 5631 5632 5634 5636 5639 5641 5644 5647 5650 5652 5655 5657 5658 5659 5661 5662 5663 5663 5663 5663 5662 5661 5659 5658 5655 5653 5651 5648 5646 5645 5642 5639 5637 5635 5633 5633 5632 5633
5640 5634 5631 5630 5636 5637 5638 5638 5640 5643 5646 5648 5649 5652 5654 5656 5658 5659 5661 5662 5663 5665 5666 5667 5667 5667 5666 5667 5665 5663 5662 5659 5656 5654 5652 5651 5649 5646 5645 5644 5642 5640 5639 5639 5640
5653 5649 5645 5644 5646 5647 5648 5649 5651 5651 5653 5654 5656 5658 5660 5662 5664 5665 5666 5667 5668 5669 5669 5670 5669 5669 5669 5668 5666 5666 5664 5662 5659 5657 5656 5655 5653 5652 5650 5650 5649 5647 5647 5647 5646
5667 5662 5660 5659 5658 5657 5657 5656 5658 5659 5661 5663 5664 5665 5667 5668 5668 5669 5670 5671 5672 5673 5673 5674 5673 5673 5671 5670 5669 5667 5666 5665 5664 5661 5659 5658 5656 5655 5654 5652 5651 5651 5650 5649 5649
5678 5675 5672 5670 5669 5668 5669 5668 5668 5668 5669 5670 5672 5672 5672 5673 5674 5674 5674 5675 5675 5676 5676 5676 5676 5675 5674 5673 5671 5669 5667 5666 5664 5663 5661 5659 5657 5656 5655 5654 5653 5652 5651 5650 5649
5687 5683 5682 5681 5680 5679 5679 5679 5678 5678 5678 5678 5677 5677 5678 5678 5678 5679 5679 5679 5679 5679 5678 5678 5677 5676 5674 5672 5670 5669 5667 5666 5665 5663 5662 5661 5661 5659 5657 5655 5654 5654 5652 5651 5650